Weather reports worldwide

Advertisment
Llanes, Spain (8016): temperature & dewpoint: 22.03.2020 22:00:00 - 28.03.2020 22:00:00 (CET)Llanes, Spain (8016): wind speed & gusts: 22.03.2020 22:00:00 - 28.03.2020 22:00:00 (CET)Llanes, Spain (8016): wind direction: 22.03.2020 22:00:00 - 28.03.2020 22:00:00 (CET)Llanes, Spain (8016): reduced air pressure: 22.03.2020 22:00:00 - 28.03.2020 22:00:00 (CET)Llanes, Spain (8016): visibility: 22.03.2020 22:00:00 - 28.03.2020 22:00:00 (CET)Llanes, Spain (8016): sunshine duration: 22.03.2020 22:00:00 - 28.03.2020 22:00:00 (CET)Llanes, Spain (8016): precipitation: 22.03.2020 22:00:00 - 28.03.2020 22:00:00 (CET)
Date & Time tt [°C] td [°C] ff [km/h] ff [kn] fx [km/h] fx [kn] dd ppp [hPa] vv [km] sd [min] rr [mm]
28.03.2020 22:00:00 - - - - - - - - - - -
28.03.2020 21:00:00 11,2 6,7 3 2 8 4 SW 1021,5 16 0 0,0
28.03.2020 20:00:00 12,4 7,3 4 2 21 12 SSE 1020,6 16 0 0,0
28.03.2020 19:00:00 13,6 8,0 11 6 20 11 ESE 1020,2 19 47 -
28.03.2020 18:00:00 14,7 8,1 11 6 25 13 ESE 1019,7 20 60 0,0
28.03.2020 17:00:00 15,3 8,1 12 7 17 9 E 1019,4 20 60 0,0
28.03.2020 16:00:00 15,6 7,6 11 6 15 8 E 1019,5 20 60 0,0
28.03.2020 15:00:00 15,3 8,1 10 6 16 9 E 1019,7 20 60 0,0
28.03.2020 14:00:00 14,7 7,4 11 6 19 10 E 1020,0 20 60 0,0
28.03.2020 13:00:00 14,1 6,4 7 4 13 7 NE 1019,9 20 60 -
28.03.2020 12:00:00 13,5 6,8 5 3 10 5 NNE 1020,0 20 60 0,0
28.03.2020 11:00:00 13,1 6,7 5 3 11 6 N 1020,0 18 59 0,0
28.03.2020 10:00:00 12,2 6,4 7 4 12 6 NNW 1019,8 15 60 0,0
28.03.2020 09:00:00 9,5 5,1 6 4 13 7 WSW 1019,1 20 60 0,0
28.03.2020 08:00:00 6,7 2,9 10 6 14 8 WSW 1018,6 20 11 0,0
28.03.2020 07:00:00 5,9 2,1 10 5 14 7 WSW 1018,1 20 0 -
28.03.2020 06:00:00 6,9 3,0 11 6 16 8 SW 1017,7 20 0 0,0
28.03.2020 05:00:00 6,5 2,9 12 7 16 9 WSW 1017,4 20 0 0,0
28.03.2020 04:00:00 6,3 2,5 13 7 16 9 WSW 1017,2 20 0 0,0
28.03.2020 03:00:00 6,8 2,7 11 6 24 13 WSW 1017,3 20 0 0,0
28.03.2020 02:00:00 7,1 2,9 11 6 16 8 WSW 1017,2 20 0 0,0
28.03.2020 01:00:00 7,4 2,7 9 5 14 7 WSW 1017,1 20 0 -
28.03.2020 00:00:00 8,7 3,4 3 2 13 7 S 1017,1 9 0 0,0
27.03.2020 23:00:00 9,3 3,4 7 4 18 10 SSE 1017,1 10 0 0,0
27.03.2020 22:00:00 10,3 3,9 11 6 34 18 SE 1016,8 11 0 0,0
27.03.2020 21:00:00 10,8 4,3 14 8 36 20 SE 1016,3 11 0 0,0
27.03.2020 20:00:00 11,9 5,5 27 15 46 25 ESE 1015,6 13 0 0,0
27.03.2020 19:00:00 12,2 5,1 29 16 44 24 ESE 1015,1 16 39 -
27.03.2020 18:00:00 12,9 6,2 26 14 41 22 ESE 1014,7 14 60 0,0
27.03.2020 17:00:00 12,7 5,3 25 13 46 25 ESE 1014,5 20 60 0,0
27.03.2020 16:00:00 13,1 5,5 27 14 38 21 E 1014,7 20 60 0,0
27.03.2020 15:00:00 13,2 5,3 24 13 40 22 E 1014,6 20 51 0,0
27.03.2020 14:00:00 13,0 4,1 24 13 34 19 E 1015,1 20 60 0,0
27.03.2020 13:00:00 13,7 4,3 19 11 31 17 E 1015,5 20 60 -
27.03.2020 12:00:00 12,5 2,7 24 13 34 18 E 1015,9 20 60 0,0
27.03.2020 11:00:00 12,2 2,1 23 12 30 16 E 1015,9 20 59 0,0
27.03.2020 10:00:00 11,9 2,3 19 11 27 15 E 1015,7 20 60 0,0
27.03.2020 09:00:00 10,3 0,0 12 7 19 10 ESE 1015,7 18 60 0,0
27.03.2020 08:00:00 5,6 -0,3 1 1 13 7 WSW 1015,4 20 11 0,0
27.03.2020 07:00:00 5,5 -0,3 5 3 11 6 WSW 1015,0 20 0 -
27.03.2020 06:00:00 6,9 0,0 4 2 14 8 S 1014,7 20 0 0,0
27.03.2020 05:00:00 7,3 0,2 5 3 12 7 S 1014,6 20 0 0,0
27.03.2020 04:00:00 7,6 0,6 6 4 13 7 S 1014,6 20 0 0,0
27.03.2020 03:00:00 8,1 1,5 4 2 10 5 S 1014,7 20 0 0,0
27.03.2020 02:00:00 8,5 1,3 5 3 9 5 SW 1014,9 20 0 0,0
27.03.2020 01:00:00 9,3 1,1 3 2 11 6 SW 1015,1 20 0 -
27.03.2020 00:00:00 9,9 0,9 7 4 19 10 SSE 1015,3 20 0 0,0
26.03.2020 23:00:00 10,2 1,3 12 6 20 11 ENE 1015,5 20 0 0,0
26.03.2020 22:00:00 10,3 0,9 13 7 22 12 NE 1015,6 20 0 0,0
26.03.2020 21:00:00 10,6 1,5 8 4 26 14 NNE 1015,7 20 0 0,0
26.03.2020 20:00:00 10,8 2,1 13 7 29 16 NE 1015,3 20 0 0,0
26.03.2020 19:00:00 11,5 3,0 13 7 31 17 NNE 1014,8 18 1 -
26.03.2020 18:00:00 12,4 4,8 14 8 32 17 WNW 1014,4 20 6 0,0
26.03.2020 17:00:00 12,3 3,9 21 11 32 18 WNW 1014,2 20 0 0,0
26.03.2020 16:00:00 12,5 3,9 17 9 29 15 NW 1014,4 20 0 0,0
26.03.2020 15:00:00 12,2 3,6 20 11 31 17 NW 1014,7 20 8 0,0
26.03.2020 14:00:00 13,1 4,8 18 10 29 16 NW 1015,1 20 59 0,0
26.03.2020 13:00:00 13,2 4,8 17 9 30 16 NW 1015,8 20 60 -
26.03.2020 12:00:00 12,9 4,3 15 8 30 16 NW 1016,2 20 57 0,0
26.03.2020 11:00:00 11,6 3,6 12 6 28 15 W 1016,3 20 7 0,0
26.03.2020 10:00:00 11,0 3,2 15 8 30 16 W 1016,2 20 39 0,0
26.03.2020 09:00:00 9,7 4,3 10 5 18 10 W 1016,1 20 1 0,0
26.03.2020 08:00:00 7,6 3,4 5 3 18 10 W 1016,1 20 0 0,0
26.03.2020 07:00:00 7,3 3,4 6 3 11 6 WSW 1015,6 20 0 -
26.03.2020 06:00:00 7,9 3,8 4 2 12 6 WSW 1015,5 20 0 0,0
26.03.2020 05:00:00 8,5 4,6 5 3 11 6 WSW 1015,6 20 0 0,0
26.03.2020 04:00:00 8,5 4,6 7 4 12 6 WSW 1016,0 20 0 0,0
26.03.2020 03:00:00 8,7 4,6 8 4 13 7 WSW 1016,3 20 0 0,0
26.03.2020 02:00:00 9,2 5,1 8 5 12 6 WSW 1016,9 20 0 0,0
26.03.2020 01:00:00 10,2 5,6 7 4 15 8 WSW 1016,9 20 0 -
26.03.2020 00:00:00 11,0 4,8 6 3 14 8 NNE 1017,4 20 0 0,0
25.03.2020 23:00:00 11,1 4,5 4 2 16 8 NNE 1017,2 20 0 0,0
25.03.2020 22:00:00 11,5 5,3 11 6 19 10 NE 1017,6 20 0 0,0
25.03.2020 21:00:00 11,4 6,4 6 4 12 6 SW 1016,8 20 0 0,0
25.03.2020 20:00:00 12,1 6,1 4 2 11 6 NNW 1016,4 20 0 0,0
25.03.2020 19:00:00 13,1 6,8 7 4 13 7 NE 1016,4 20 34 -
25.03.2020 18:00:00 14,6 8,3 5 3 14 7 NNW 1016,0 20 60 0,0
25.03.2020 17:00:00 14,6 8,9 6 4 16 9 NNE 1016,3 20 60 0,0
25.03.2020 16:00:00 15,6 10,2 9 5 15 8 NNW 1016,3 18 60 0,0
25.03.2020 15:00:00 15,1 10,3 7 4 11 6 NNW 1016,5 14 41 0,0
25.03.2020 14:00:00 14,1 10,2 4 2 14 7 NE 1016,8 20 31 0,0
25.03.2020 13:00:00 14,3 10,5 9 5 19 10 NNW 1016,8 14 60 -
25.03.2020 12:00:00 14,1 10,5 11 6 18 10 NW 1017,0 14 60 0,0
25.03.2020 11:00:00 13,9 10,3 9 5 16 9 NW 1017,0 10 60 0,0
25.03.2020 10:00:00 13,4 9,8 5 3 9 5 NW 1016,7 9 60 0,0
25.03.2020 09:00:00 10,7 7,6 7 4 12 7 WSW 1016,6 20 60 0,0
25.03.2020 08:00:00 8,7 5,6 9 5 13 7 WSW 1016,6 20 5 0,0
25.03.2020 07:00:00 8,1 5,1 10 5 15 8 WSW 1016,0 20 0 -
25.03.2020 06:00:00 8,2 5,3 9 5 14 8 WSW 1015,9 20 0 0,0
25.03.2020 05:00:00 8,7 5,8 8 5 16 9 W 1015,7 20 0 0,0
25.03.2020 04:00:00 8,7 5,9 11 6 14 8 WSW 1015,7 20 0 0,0
25.03.2020 03:00:00 8,8 6,2 9 5 13 7 WSW 1016,2 18 0 0,0
25.03.2020 02:00:00 9,5 6,7 6 3 13 7 WSW 1016,4 15 0 0,0
25.03.2020 01:00:00 10,3 7,8 10 5 15 8 WSW 1016,5 15 0 -
25.03.2020 00:00:00 11,0 8,3 7 4 15 8 WSW 1016,8 11 0 0,0
24.03.2020 23:00:00 12,9 10,3 12 6 31 17 ESE 1017,2 2,7 0 0,0
24.03.2020 22:00:00 13,1 10,4 11 6 24 13 SE 1017,2 3,9 0 0,0
24.03.2020 21:00:00 13,5 10,6 19 10 32 17 ESE 1016,7 6 0 0,0
24.03.2020 20:00:00 13,9 10,5 16 9 32 18 ESE 1016,2 10 0 0,0
24.03.2020 19:00:00 14,5 10,5 17 9 28 15 ESE 1016,4 10 31 -
24.03.2020 18:00:00 15,6 10,5 19 10 34 18 E 1016,4 15 60 0,0
24.03.2020 17:00:00 16,3 10,2 22 12 38 21 ESE 1016,6 12 60 0,0
24.03.2020 16:00:00 17,5 9,9 19 10 33 18 ESE 1016,6 18 60 0,0
24.03.2020 15:00:00 18,3 11,3 18 10 25 13 E 1016,7 20 60 0,0
24.03.2020 14:00:00 16,8 10,9 17 9 24 13 E 1017,1 20 60 0,0
24.03.2020 13:00:00 15,3 10,9 12 6 19 10 E 1018,0 15 60 -
24.03.2020 12:00:00 14,9 11,1 10 6 15 8 E 1018,5 8 60 0,0
24.03.2020 11:00:00 13,8 10,4 5 3 10 5 N 1018,4 6 60 0,0
24.03.2020 10:00:00 13,3 10,3 3 2 10 6 NNW 1018,6 10 59 0,0
24.03.2020 09:00:00 11,1 8,8 6 3 14 7 W 1018,6 12 60 0,0
24.03.2020 08:00:00 9,4 7,3 9 5 14 8 WSW 1018,5 11 8 0,0
24.03.2020 07:00:00 9,3 7,1 9 5 12 7 SW 1018,0 9 0 -
24.03.2020 06:00:00 9,7 7,4 8 4 14 8 WSW 1017,9 12 0 0,0
24.03.2020 05:00:00 9,8 7,4 9 5 14 7 WSW 1017,8 9 0 0,0
24.03.2020 04:00:00 10,5 8,1 8 5 11 6 WSW 1017,9 9 0 0,0
24.03.2020 03:00:00 11,4 8,8 9 5 14 7 WSW 1018,2 9 0 0,0
24.03.2020 02:00:00 11,7 8,9 1 1 7 4 N 1018,3 10 0 0,0
24.03.2020 01:00:00 12,1 9,3 4 2 10 6 S 1018,4 10 0 -
24.03.2020 00:00:00 13,0 10,2 8 4 35 19 SE 1018,5 9 0 0,0
23.03.2020 23:00:00 13,2 10,5 26 14 41 22 E 1018,7 12 0 0,0
23.03.2020 22:00:00 13,1 10,0 24 13 42 23 E 1018,7 15 0 0,0
23.03.2020 21:00:00 13,1 10,0 25 14 32 18 E 1018,5 16 0 0,0
23.03.2020 20:00:00 13,0 10,0 22 12 29 16 E 1018,4 15 0 0,0
23.03.2020 19:00:00 13,0 9,8 16 9 25 14 E 1018,3 15 0 -
23.03.2020 18:00:00 13,0 9,8 14 8 21 11 E 1018,2 16 0 0,0
23.03.2020 17:00:00 13,0 9,7 15 8 21 11 E 1018,0 15 0 0,0
23.03.2020 16:00:00 13,1 9,7 14 8 23 13 E 1018,0 15 0 0,0
23.03.2020 15:00:00 13,2 9,7 18 10 25 13 E 1018,1 15 0 0,0
23.03.2020 14:00:00 13,4 9,7 20 11 27 14 E 1018,3 15 0 0,0
23.03.2020 13:00:00 13,4 9,8 16 9 23 13 E 1018,8 14 0 -
23.03.2020 12:00:00 13,8 10,2 11 6 16 9 E 1019,0 12 0 0,0
23.03.2020 11:00:00 13,1 9,7 11 6 16 9 E 1019,2 15 0 0,0
23.03.2020 10:00:00 13,0 10,2 6 4 11 6 E 1019,2 15 0 0,0
23.03.2020 09:00:00 12,4 9,8 5 3 16 8 SE 1018,7 9 0 0,0
23.03.2020 08:00:00 12,2 9,8 4 2 19 11 SSE 1018,3 8 0 0,2
23.03.2020 07:00:00 12,3 9,7 6 3 15 8 SE 1017,9 6 0 -
23.03.2020 06:00:00 12,3 9,7 11 6 15 8 E 1017,5 10 0 0,0
23.03.2020 05:00:00 12,2 9,8 4 2 13 7 S 1017,1 8 0 0,0
23.03.2020 04:00:00 12,4 9,8 9 5 15 8 E 1016,9 9 0 0,0
23.03.2020 03:00:00 12,5 9,9 8 4 13 7 ENE 1017,2 7 0 0,0
23.03.2020 02:00:00 12,6 9,8 3 2 9 5 E 1017,4 9 0 0,0
23.03.2020 01:00:00 12,6 9,8 3 2 10 6 NE 1017,4 11 0 -
23.03.2020 00:00:00 12,7 9,9 8 4 14 8 ENE 1017,5 10 0 0,0
22.03.2020 23:00:00 12,8 10,2 9 5 16 9 NE 1017,3 9 0 0,0
22.03.2020 22:00:00 12,8 10,2 10 5 16 9 ENE 1017,0 7 0 0,0

tt = temperature
td = dewpoint
ff = wind speed
fx = gusts
dd = wind direction
ppp = reduced air pressure
vv = visibility
sd = sunshine duration
rr = precipitation

Next stations